Location: Austin
(30.3000°N, 97.7500°W)
Time: 02:47:31
(UTC-05:00)

Resurs 01 Rocket - Pass Details

Date: 01 October 2024
Orbit: 628 x 640 km, 97.8° (Epoch: 06 October)

Event Time Altitude Azimuth Distance (km) Brightness Sun altitude
Exits shadow 20:48:52 16° 26° (NNE) 1,655 3.6 -20.9°
Drops below altitude 10° 20:50:00 10° 16° (NNE) 2,018 4.1 -21.2°
Sets 20:52:28 0° 4° (N) 2,927 5.1 -21.7°
